Monroe, MI

4:23 PM EDT on April 28, 2017 (GMT -0400)
Custer

Weather History for KTTF - December, 2012

Change the Weather History Date:

Wednesday, December 12, 2012

  Actual Average Record
Temperature  
Mean Temperature 34 °F -  
Max Temperature 42 °F 37 °F 64 °F (2015)
Min Temperature 26 °F 23 °F -3 °F (1977)
Degree Days  
Heating Degree Days 31    
Moisture  
Dew Point 26 °F    
Average Humidity 76    
Maximum Humidity 93    
Minimum Humidity 53    
Precipitation  
Precipitation 0.00 in - - ()
Sea Level Pressure  
Sea Level Pressure 30.30 in    
Wind  
Wind Speed 7 mph (SW)    
Max Wind Speed 10 mph    
Max Gust Speed 16 mph    
Visibility 10 miles    
Events      
Averages and records for this station are not official NWS values.
T = Trace of Precipitation, MM = Missing Value Source: NWS Daily Summary

Daily Weather History Graph

Daily Weather History Graph

Search for Another Location

Airport or City:

Trip Planner

Search our weather history database for the weather conditions in past years. The results will help you decide how hot, cold, wet, or windy it might be!

Date:

Astronomy

Dec. 12, 2012 Rise Set
Actual Time 7:52 AM EST 5:02 PM EST
Civil Twilight 7:21 AM EST 5:34 PM EST
Nautical Twilight 6:45 AM EST 6:09 PM EST
Astronomical Twilight 6:12 AM EST 6:43 PM EST
Moon 6:55 AM EST (12/12) 4:39 PM EST (12/12)
Length of Visible Light 10h 13m
Length of Day
9h 10m
Waning Crescent, 1% of the Moon is Illuminated
Dec 12
Waning Crescent
Dec 13
New
Dec 20
First Quarter
Dec 28
Full
Jan 4
Last Quarter

Hourly Weather History & Observations

Time (EST) Temp. Windchill Dew Point Humidity Pressure Visibility Wind Dir Wind Speed Gust Speed Precip Events Conditions
12:11 AM 28.4 °F 21.2 °F 24.8 °F 86% 30.17 in 10.0 mi SSW 6.9 mph - N/A   Clear
12:31 AM 28.4 °F 21.2 °F 24.8 °F 86% 30.18 in 10.0 mi SSW 6.9 mph - N/A   Clear
12:51 AM 28.4 °F 19.7 °F 24.8 °F 86% 30.17 in 10.0 mi SSW 9.2 mph - N/A   Clear
1:11 AM 30.2 °F 23.4 °F 24.8 °F 80% 30.17 in 10.0 mi SSW 6.9 mph - N/A   Clear
1:31 AM 30.2 °F 23.4 °F 24.8 °F 80% 30.18 in 10.0 mi SSW 6.9 mph - N/A   Clear
1:51 AM 30.2 °F 23.4 °F 24.8 °F 80% 30.18 in 10.0 mi SSW 6.9 mph - N/A   Clear
2:11 AM 28.4 °F 22.2 °F 24.8 °F 86% 30.19 in 10.0 mi SSW 5.8 mph - N/A   Clear
2:31 AM 28.4 °F 22.2 °F 24.8 °F 86% 30.20 in 10.0 mi South 5.8 mph - N/A   Clear
2:52 AM 28.4 °F 23.3 °F 24.8 °F 86% 30.21 in 10.0 mi SSW 4.6 mph - N/A   Clear
3:12 AM 28.4 °F 22.2 °F 24.8 °F 86% 30.21 in 10.0 mi SSW 5.8 mph - N/A   Clear
3:32 AM 28.4 °F 21.2 °F 24.8 °F 86% 30.22 in 10.0 mi SSW 6.9 mph - N/A   Clear
3:52 AM 28.4 °F 20.4 °F 24.8 °F 86% 30.22 in 10.0 mi SW 8.1 mph - N/A   Clear
4:12 AM 28.4 °F 21.2 °F 24.8 °F 86% 30.22 in 10.0 mi SW 6.9 mph - N/A   Clear
4:32 AM 28.4 °F 20.4 °F 24.8 °F 86% 30.23 in 10.0 mi SW 8.1 mph - N/A   Clear
4:52 AM 28.4 °F 20.4 °F 24.8 °F 86% 30.22 in 10.0 mi SW 8.1 mph - N/A   Clear
5:12 AM 28.4 °F 22.2 °F 24.8 °F 86% 30.23 in 10.0 mi SW 5.8 mph - N/A   Clear
5:32 AM 28.4 °F 19.7 °F 24.8 °F 86% 30.25 in 10.0 mi SW 9.2 mph - N/A   Clear
5:52 AM 28.4 °F 21.2 °F 24.8 °F 86% 30.25 in 10.0 mi SW 6.9 mph - N/A   Clear
6:13 AM 26.6 °F 20.0 °F 24.8 °F 93% 30.26 in 10.0 mi SW 5.8 mph - N/A   Clear
6:33 AM 28.4 °F 22.2 °F 24.8 °F 86% 30.26 in 10.0 mi SW 5.8 mph - N/A   Clear
6:53 AM 28.4 °F 21.2 °F 24.8 °F 86% 30.27 in 10.0 mi SW 6.9 mph - N/A   Clear
7:33 AM 28.4 °F 21.2 °F 24.8 °F 86% 30.27 in 10.0 mi SW 6.9 mph - N/A   Clear
7:53 AM 28.4 °F 22.2 °F 24.8 °F 86% 30.27 in 10.0 mi SSW 5.8 mph - N/A   Clear
8:33 AM 28.4 °F 22.2 °F 24.8 °F 86% 30.29 in 7.0 mi SSW 5.8 mph - N/A   Clear
8:53 AM 28.4 °F 20.4 °F 24.8 °F 86% 30.30 in 7.0 mi SSW 8.1 mph - N/A   Clear
9:14 AM 30.2 °F 22.6 °F 24.8 °F 80% 30.30 in 7.0 mi SSW 8.1 mph - N/A   Clear
9:34 AM 30.2 °F 21.9 °F 26.6 °F 86% 30.31 in 7.0 mi SSW 9.2 mph - N/A   Clear
9:54 AM 32.0 °F 24.8 °F 26.6 °F 80% 30.32 in 10.0 mi SW 8.1 mph - N/A   Clear
10:14 AM 33.8 °F 27.7 °F 26.6 °F 75% 30.33 in 10.0 mi WSW 6.9 mph - N/A   Clear
10:34 AM 35.6 °F 28.6 °F 26.6 °F 70% 30.34 in 10.0 mi WSW 9.2 mph - N/A   Clear
10:54 AM 35.6 °F 28.6 °F 26.6 °F 70% 30.34 in 10.0 mi WSW 9.2 mph - N/A   Clear
11:14 AM 37.4 °F 32.8 °F 28.4 °F 70% 30.35 in 10.0 mi WSW 5.8 mph - N/A   Clear
11:34 AM 37.4 °F 31.4 °F 26.6 °F 65% 30.35 in 10.0 mi WSW 8.1 mph - N/A   Clear
11:54 AM 37.4 °F 30.8 °F 28.4 °F 70% 30.35 in 10.0 mi WSW 9.2 mph - N/A   Clear
12:14 PM 39.2 °F 32.5 °F 28.4 °F 65% 30.34 in 10.0 mi WSW 10.4 mph - N/A   Clear
12:35 PM 39.2 °F 34.2 °F 28.4 °F 65% 30.34 in 10.0 mi WSW 6.9 mph - N/A   Clear
12:55 PM 41.0 °F 35.2 °F 28.4 °F 61% 30.34 in 10.0 mi WSW 9.2 mph - N/A   Clear
1:15 PM 41.0 °F 35.8 °F 28.4 °F 61% 30.34 in 10.0 mi WSW 8.1 mph - N/A   Clear
1:35 PM 42.8 °F 37.5 °F 28.4 °F 57% 30.34 in 10.0 mi WSW 9.2 mph - N/A   Clear
1:55 PM 42.8 °F 37.0 °F 28.4 °F 57% 30.33 in 10.0 mi WSW 10.4 mph - N/A   Clear
2:15 PM 42.8 °F 37.0 °F 26.6 °F 53% 30.33 in 10.0 mi WSW 10.4 mph - N/A   Clear
2:35 PM 42.8 °F 38.0 °F 28.4 °F 57% 30.33 in 10.0 mi WSW 8.1 mph - N/A   Clear
2:55 PM 42.8 °F 38.6 °F 28.4 °F 57% 30.32 in 10.0 mi SW 6.9 mph - N/A   Clear
3:15 PM 42.8 °F 37.0 °F 26.6 °F 53% 30.33 in 10.0 mi SW 10.4 mph 16.1 mph N/A   Clear
3:35 PM 42.8 °F 38.6 °F 26.6 °F 53% 30.32 in 10.0 mi WSW 6.9 mph - N/A   Clear
3:56 PM 42.8 °F 38.0 °F 26.6 °F 53% 30.32 in 10.0 mi WSW 8.1 mph - N/A   Clear
4:11 PM 41.0 °F 39.0 °F 28.4 °F 61% 30.33 in 10.0 mi WSW 3.5 mph - N/A   Clear
4:31 PM 39.2 °F 35.9 °F 28.4 °F 65% 30.33 in 10.0 mi WSW 4.6 mph - N/A   Clear
4:51 PM 39.2 °F - 28.4 °F 65% 30.33 in 10.0 mi Calm Calm - N/A   Clear
5:11 PM 37.4 °F - 26.6 °F 65% 30.33 in 10.0 mi Calm Calm - N/A   Clear
5:31 PM 37.4 °F - 26.6 °F 65% 30.34 in 10.0 mi Calm Calm - N/A   Clear
5:51 PM 33.8 °F - 26.6 °F 75% 30.34 in 10.0 mi Calm Calm - N/A   Clear
6:11 PM 35.6 °F - 26.6 °F 70% 30.34 in 10.0 mi Calm Calm - N/A   Clear
6:52 PM 33.8 °F 29.6 °F 26.6 °F 75% 30.35 in 10.0 mi SSW 4.6 mph - N/A   Clear
7:12 PM 32.0 °F 27.5 °F 26.6 °F 80% 30.35 in 10.0 mi South 4.6 mph - N/A   Clear
7:32 PM 35.6 °F 31.7 °F 26.6 °F 70% 30.36 in 10.0 mi South 4.6 mph - N/A   Clear
7:52 PM 33.8 °F 30.8 °F 26.6 °F 75% 30.36 in 10.0 mi South 3.5 mph - N/A   Clear
8:12 PM 33.8 °F 30.8 °F 26.6 °F 75% 30.36 in 10.0 mi South 3.5 mph - N/A   Clear
8:32 PM 33.8 °F - 26.6 °F 75% 30.36 in 10.0 mi Calm Calm - N/A   Clear
8:52 PM 33.8 °F - 26.6 °F 75% 30.36 in 10.0 mi Calm Calm - N/A   Clear
9:12 PM 32.0 °F 28.7 °F 26.6 °F 80% 30.36 in 10.0 mi South 3.5 mph - N/A   Clear
9:32 PM 32.0 °F 27.5 °F 26.6 °F 80% 30.36 in 10.0 mi South 4.6 mph - N/A   Clear
9:52 PM 33.8 °F 30.8 °F 26.6 °F 75% 30.36 in 10.0 mi South 3.5 mph - N/A   Clear
10:12 PM 32.0 °F 27.5 °F 26.6 °F 80% 30.37 in 10.0 mi South 4.6 mph - N/A   Clear
10:33 PM 30.2 °F 25.4 °F 26.6 °F 86% 30.37 in 10.0 mi South 4.6 mph - N/A   Clear
10:53 PM 32.0 °F 28.7 °F 26.6 °F 80% 30.37 in 10.0 mi South 3.5 mph - N/A   Clear
11:13 PM 30.2 °F 25.4 °F 26.6 °F 86% 30.37 in 10.0 mi South 4.6 mph - N/A   Clear
11:33 PM 30.2 °F 24.3 °F 26.6 °F 86% 30.36 in 10.0 mi South 5.8 mph - N/A   Clear
11:53 PM 30.2 °F 26.7 °F 26.6 °F 86% 30.36 in 10.0 mi South 3.5 mph - N/A   Clear